EZ58KD Weather Reports


time (UTC)temp
F
wind
direction
speed
knots
gust
knots
rain 1hr
in
rain 24hr
in
rain mn
in
humidity
%
barometer
mb
20260504232027 50 360 6.1 6.1 0.00 0.00 0.00 71 1009.5
20260504231028 50 360 3.5 4.3 0.00 0.00 0.00 72 1009.4
20260504225028 52 45 7.0 7.8 0.00 0.00 0.00 71 1009.1
20260504224030 52 45 3.5 4.3 0.00 0.00 0.00 71 1009.0
20260504223029 52 22 1.7 2.6 0.00 0.00 0.00 71 1009.0
20260504221228 53 112 5.2 6.1 0.00 0.00 0.00 66 1009.0
20260504220328 53 112 7.0 7.0 0.00 0.00 0.00 64 1009.0
20260504215329 54 90 4.3 5.2 0.00 0.00 0.00 62 1008.8
20260504214427 55 90 7.0 7.8 0.00 0.00 0.00 60 1008.8
20260504214329 55 90 7.0 7.8 0.00 0.00 0.00 60 1008.8
20260504213427 54 90 7.8 8.7 0.00 0.00 0.00 61 1008.7
20260504212527 55 90 7.8 8.7 0.00 0.00 0.00 59 1008.7
20260504211529 56 90 7.0 7.8 0.00 0.00 0.00 58 1008.8
20260504210527 55 90 7.0 8.7 0.00 0.00 0.00 62 1008.6
20260504205627 54 97 5.2 7.0 0.00 0.00 0.00 62 1008.7
20260504204628 54 90 4.3 5.2 0.00 0.00 0.00 63 1008.7
20260504203628 53 90 7.8 8.7 0.00 0.00 0.00 65 1008.5
20260504202627 53 90 6.1 6.1 0.00 0.00 0.00 65 1008.5
20260504201628 53 90 3.5 4.3 0.00 0.00 0.00 64 1008.5
20260504194727 52 90 7.0 7.0 0.00 0.01 0.00 66 1008.5
20260504193729 51 90 4.3 5.2 0.00 0.01 0.00 70 1008.6
20260504192828 51 90 3.5 4.3 0.00 0.01 0.00 69 1008.8
20260504191926 51 90 4.3 5.2 0.00 0.01 0.00 69 1008.9
20260504190928 52 135 5.2 6.1 0.00 0.02 0.00 68 1009.0
20260504185928 51 172 6.1 7.0 0.00 0.02 0.00 69 1009.1
20260504184928 51 180 4.3 5.2 0.00 0.02 0.00 66 1009.6
20260504183928 52 176 7.0 8.7 0.00 0.02 0.00 65 1009.5
20260504182929 50 167 7.8 9.6 0.00 0.03 0.00 67 1009.6
20260504181928 49 135 6.1 7.0 0.00 0.04 0.00 69 1009.6
20260504180029 49 135 1.7 2.6 0.00 0.07 0.00 70 1009.3
20260504174028 49 90 7.0 8.7 0.00 0.10 0.00 69 1009.0
20260504173029 49 90 10.4 12.2 0.00 0.13 0.00 68 1008.9
20260504172928 49 94 10.4 12.2 0.00 0.13 0.00 69 1009.1
20260504171928 49 90 11.3 13.9 0.00 0.15 0.00 69 1008.8
20260504170927 49 90 10.4 12.2 0.00 0.17 0.00 69 1008.8
20260504140928 48 90 7.0 7.8 0.00 0.44 0.00 60 1010.4
20260504110329 42 198 8.7 9.6 0.00 0.73 0.00 67 1010.6
20260504081628 41 180 7.8 7.8 0.00 0.91 0.00 71 1009.6
20260504080629 41 180 7.8 8.7 0.00 0.92 0.00 72 1009.5
20260504044127 43 180 13.0 14.8 0.00 1.07 0.00 63 1008.3
20260504043127 43 182 8.7 9.6 0.00 1.07 0.00 61 1008.3
20260504040227 44 196 13.0 14.8 0.00 1.07 0.00 58 1008.0
20260504035237 44 201 12.2 13.9 0.00 1.07 1.07 59 1007.9
20260504034240 44 202 13.0 16.5 0.00 1.07 1.07 59 1007.8
20260504033238 44 202 13.9 16.5 0.00 1.07 1.07 58 1007.8
20260504032237 44 214 14.8 16.5 0.00 1.07 1.07 59 1007.7
20260504030337 44 200 14.8 17.4 0.00 1.07 1.07 58 1007.5
20260504025340 44 208 13.9 16.5 0.00 1.07 1.07 59 1007.4
20260504023337 44 202 15.6 17.4 0.00 1.07 1.07 60 1007.2
20260504022339 44 214 14.8 17.4 0.00 1.07 1.07 62 1007.2
20260504021338 44 199 13.9 16.5 0.00 1.07 1.07 63 1007.2
20260504020438 45 202 12.2 13.0 0.00 1.07 1.07 65 1007.2
20260504015537 45 194 13.9 15.6 0.00 1.07 1.07 66 1007.0
20260504014538 45 202 11.3 13.0 0.00 1.07 1.07 66 1007.1
20260504013636 45 220 13.9 16.5 0.00 1.07 1.07 67 1006.8
20260504012637 46 225 13.0 15.6 0.00 1.07 1.07 68 1006.7
20260504011639 46 223 15.6 18.2 0.00 1.07 1.07 73 1006.6
20260504005639 45 202 8.7 9.6 0.00 1.07 1.07 84 1006.3
20260504004640 45 202 8.7 8.7 0.00 1.07 1.07 84 1006.2
20260504003738 45 202 7.8 7.8 0.00 1.07 1.07 84 1006.0
20260504002739 45 202 7.0 7.8 0.00 1.07 1.07 84 1005.7
20260503235839 45 225 9.6 11.3 0.00 1.07 1.07 81 1005.4
20260503234839 45 225 10.4 12.2 0.00 1.07 1.07 80 1005.4
20260503232937 45 225 7.8 8.7 0.00 1.07 1.07 80 1005.1